Regional Weather Roundup
Issued by NWS

Home | Current Version | Previous Version | Text Only | Print | Product List | Glossary Off
Versions: 1 2 3 4 5 6 7 8 9 10 11 12 13 14 15 16 17 18 19 20 21 22 23 24 25 26 27 28

000
ASUS45 KPSR 300010
RWRAZ

ARIZONA HOURLY REGIONAL WEATHER ROUNDUP
NATIONAL WEATHER SERVICE PHOENIX AZ
500 PM MST SAT APR 29 2017

NOTE: FAIR INDICATES FEW OR NO CLOUDS BELOW 12,000 FEET WITH NO
SIGNIFICANT WEATHER AND/OR OBSTRUCTIONS TO VISIBILITY.

AZZ001>003-036-300100-
NORTHWEST ARIZONA

CITY           SKY/WX    TMP DP  RH WIND       PRES   REMARKS
BULLHEAD CITY  SUNNY     82  16   8 N15G22    29.95S
KINGMAN        SUNNY     70  18  13 N18G31    30.04S
6HR MIN TEMP:  62; 6HR MAX TEMP:  71;

$$

AZZ004>008-015-016-018-300100-
NORTH CENTRAL ARIZONA

CITY           SKY/WX    TMP DP  RH WIND       PRES   REMARKS
GRAND CANYON   CLOUDY    54  12  18 N13G21    30.08S
6HR MIN TEMP:  46; 6HR MAX TEMP:  55;

WILLIAMS       SUNNY     54  10  17 N22G30    30.07R
PRESCOTT       MOSUNNY   62   8  12 N21G29    30.02S
6HR MIN TEMP:  53; 6HR MAX TEMP:  64;

FLAGSTAFF      MOSUNNY   52   8  17 N10G23    30.06R
6HR MIN TEMP:  45; 6HR MAX TEMP:  53;

PAYSON         PTSUNNY   61  10  13 CALM      30.02R
PAGE           MOSUNNY   64  16  15 NE7       30.00S
6HR MIN TEMP:  58; 6HR MAX TEMP:  65;

$$

AZZ009>014-017-300100-
NORTHEAST ARIZONA

CITY           SKY/WX    TMP DP  RH WIND       PRES   REMARKS
WINSLOW        SUNNY     60  13  15 NW25G35   30.01R
6HR MIN TEMP:  53; 6HR MAX TEMP:  62;

SAINT JOHNS    CLOUDY    42  35  76 E15       30.01R
6HR MIN TEMP:  38; 6HR MAX TEMP:  52; 6HR PCP:  0.01;

WINDOW ROCK    MOSUNNY   46  27  47 N18G26    30.00S
6HR MIN TEMP:  34; 6HR MAX TEMP:  47; 6HR PCP:  0.08;

SHOW LOW       MOSUNNY   48  18  29 N12       30.02R
$$

AZZ540-542>544-546-548-300100-
GREATER PHOENIX AREA

CITY           SKY/WX    TMP DP  RH WIND       PRES   REMARKS
PHOENIX        MOSUNNY   79  22  12 SW7       29.86S
6HR MIN TEMP:  71; 6HR MAX TEMP:  81;

BUCKEYE        SUNNY     81  19  10 W21G28    29.88F
GLENDALE       MOSUNNY   81  21  11 CALM      29.87S
LUKE AFB       SUNNY     83  17   8 W18       29.84S
6HR MIN TEMP:  72; 6HR MAX TEMP:  83;

DEER VALLEY    SUNNY     78  17  10 S7G18     29.85F
6HR MIN TEMP:  71; 6HR MAX TEMP:  80;

SCOTTSDALE     SUNNY     79  18  10 W7G23     29.88S
6HR MIN TEMP:  70; 6HR MAX TEMP:  79;

MESA-FALCON    MOSUNNY  N/A N/A N/A MISG      29.88S
MESA-GATEWAY   MOSUNNY   79  21  11 SW14G25   29.90S
CHANDLER       SUNNY     79  19  11 W17       29.88F
$$

AZZ539-553-300100-
SOUTHWEST MARICOPA COUNTY AND PINAL COUNTY

CITY           SKY/WX    TMP DP  RH WIND       PRES   REMARKS
CASA GRANDE    SUNNY     76  20  12 W13G22    29.92S
6HR MIN TEMP:  69; 6HR MAX TEMP:  77;

GILA BEND      MOSUNNY   80  16   9 W12       29.90S
6HR MIN TEMP:  72; 6HR MAX TEMP:  81;

$$

AZZ503-504-507>509-300100-
SOUTHEAST ARIZONA

CITY           SKY/WX    TMP DP  RH WIND       PRES   REMARKS
TUCSON         SUNNY     72  13  10 NW23G31   29.96R
6HR MIN TEMP:  67; 6HR MAX TEMP:  73;

DAVIS-MONTHAN  SUNNY     70  14  11 NW13G25   29.95S
6HR MIN TEMP:  65; 6HR MAX TEMP:  71;

RYAN FIELD     SUNNY     72  12  10 NW15G25   29.96R
NOGALES        SUNNY     68   3   7 NW12G24   29.97R
6HR MIN TEMP:  64; 6HR MAX TEMP:  71;

SIERRA VISTA   SUNNY     63   2   9 NW17G26   30.00R
6HR MIN TEMP:  60; 6HR MAX TEMP:  65;

DOUGLAS        SUNNY     66   2   8 NW22G37   29.95R
6HR MIN TEMP:  61; 6HR MAX TEMP:  70;

SAFFORD        MOSUNNY   66  16  14 NW20G32   29.90R
6HR MIN TEMP:  65; 6HR MAX TEMP:  71;

$$

AZZ532-300100-
SOUTHWEST ARIZONA

CITY           SKY/WX    TMP DP  RH WIND       PRES   REMARKS
YUMA           SUNNY     85  17   8 N13       29.92S
6HR MIN TEMP:  77; 6HR MAX TEMP:  85;

$$

CAZ041-043-047-048-061-525>527-560>570-300100-
SOUTHERN CALIFORNIA

CITY           SKY/WX    TMP DP  RH WIND       PRES   REMARKS
DOWNTOWN L.A.  SUNNY     77  33  20 VRB6      29.97S
6HR MIN TEMP:  77; 6HR MAX TEMP:  83;

L.A. AIRPORT   SUNNY     69  44  40 W21       29.99S
6HR MIN TEMP:  69; 6HR MAX TEMP:  80;

SAN DIEGO      SUNNY     78  29  16 W16       29.98S
6HR MIN TEMP:  77; 6HR MAX TEMP:  81;

BURBANK        SUNNY     79  17  10 S9        29.97S
6HR MIN TEMP:  77; 6HR MAX TEMP:  84;

ONTARIO        SUNNY     83   8   6 NE14G24   29.96S
6HR MIN TEMP:  75; 6HR MAX TEMP:  85;

RIVERSIDE      SUNNY     84  14   7 N12G21    29.96S
6HR MIN TEMP:  75; 6HR MAX TEMP:  84;

PALM SPRINGS   SUNNY     88   6   4 N15G23    29.97F
6HR MIN TEMP:  77; 6HR MAX TEMP:  89;

EL CENTRO NAS  SUNNY     85  10   6 NW12      29.95F
6HR MIN TEMP:  77; 6HR MAX TEMP:  85;

IMPERIAL       SUNNY     84  21  10 NW8       29.93F
6HR MIN TEMP:  77; 6HR MAX TEMP:  85; 6HR PCP: TRACE;

BLYTHE         SUNNY     85  11   6 N22G30    29.93S
6HR MIN TEMP:  76; 6HR MAX TEMP:  86;

NEEDLES        SUNNY     83  15   8 N18G26    29.96F
6HR MIN TEMP:  75; 6HR MAX TEMP:  84;

$$

NVZ020-UTZ003-300100-
SOUTHERN NEVADA-UTAH

CITY           SKY/WX    TMP DP  RH WIND       PRES   REMARKS
LAS VEGAS      MOSUNNY   77   7   7 VRB7      29.99F
6HR MIN TEMP:  67; 6HR MAX TEMP:  79;

SALT LAKE CITY MOSUNNY   56  24  29 NE8       30.17F
6HR MIN TEMP:  51; 6HR MAX TEMP:  57;

$$

NMZ009-TXZ055-300100-
NEW MEXICO-WEST TEXAS

CITY           SKY/WX    TMP DP  RH WIND       PRES   REMARKS
ALBUQUERQUE    CLOUDY    46  29  51 S15       29.95R
6HR MIN TEMP:  36; 6HR MAX TEMP:  49; 6HR PCP: TRACE;

EL PASO        MOSUNNY   58  29  33 N13G23    29.90R
6HR MIN TEMP:  50; 6HR MAX TEMP:  59; 6HR PCP:  0.02;

$$


........................KEY........................
SKY/WX - SKY CONDITION/WEATHER
TMP    - TEMPERATURE IN FAHRENHEIT
DP     - DEW POINT IN FAHRENHEIT
RH     - RELATIVE HUMIDITY IN PERCENT
WIND   - DIRECTION AND SPEED IN MILES PER HOUR (MPH)
VRB    - VARIABLE WIND DIRECTION
PRES   - MEAN SEA LEVEL PRESSURE IN INCHES OF MERCURY
         F - FALLING PRESSURE   R - RISING PRESSURE
         S - STEADY PRESSURE
VSB    - VISIBILITY IN MILES
HX     - HEAT INDEX IN FAHRENHEIT
WCI    - WIND CHILL INDEX IN FAHRENHEIT
TC     - TEMPERATURE IN CELSIUS WHICH IS ALSO KNOWN AS
         TEMPERATURE IN CENTIGRADE
AFB    - AIR FORCE BASE
         LUKE AFB IS LUKE AIR FORCE BASE
         DAVIS-MONTHAN IS DAVIS-MONTHAN AIR FORCE BASE
NAS    - NAVAL AIR STATION
         EL CENTRO NAS IS EL CENTRO NAVAL AIR STATION
N/A    - NOT AVAILABLE





USA.gov is the U.S. government's official web portal to all federal, state and local government web resources and services.